Flag for United Arab Emirates Weather past 2 weeks in Umm al-Quwain, Umm al-Quwain, United Arab Emirates

Now
106 °F

Clear.


Feels Like: 109 °F
Forecast: 92 / 101 °F
Wind: 5 mph from South

Location: Sharjah International Airport

Current Time: Jul 31, 2014 at 12:20:30 PM

Latest Report: Jul 31, 2014 at 11:00 AM


Visibility: 5 mi

Pressure: 29.50 "Hg

Humidity: 25%

Dew point: 63 °F

Location of Umm al-QuwainLocation

Historic Weather in Umm al-Quwain — Graph

°F

Umm al-Quwain temperature yesterday

Maximum temperature yesterday: 104 °F (at 1:00 PM)
Minimum temperature yesterday: 86 °F (at 5:00 AM)
Average temperature yesterday: 96 °F

Past Weeks' High & Low Weather Summary

 TemperatureHumidityPressure
High115 °F (Jul 26, 2:00 PM)84% (Jul 19, 1:00 AM)29.56 "Hg (Jul 19, 1:00 AM)
Low84 °F (Jul 22, 6:00 AM)18% (Jul 19, 11:00 AM)29.33 "Hg (Jul 18, 5:00 PM)
Average97 °F53%29.44 "Hg
* Reported Jul 16 11:00 AM — Jul 31 11:00 AM, Umm al-Quwain, Weather by CustomWeather, © 2014

Note: Actual official high and low records may vary slightly from our data, if they occured in-between our weather recording intervals... More about our weather records

Advertising

Umm al-Quwain weather history for previous 24 hours

 ConditionsComfort  
Time TempWeatherWind HumidityBarometerVisibility
11:00 AM
Jul 31
106 °FClear.5 mph25%29.50 "Hg5 mi
10:00 AM102 °FClear.6 mph33%29.50 "Hg5 mi
9:00 AM97 °FSunny.6 mph50%29.50 "Hg5 mi
8:00 AM93 °FClear.5 mph56%29.50 "Hg5 mi
7:00 AM88 °FClear.3 mph55%29.50 "Hg4 mi
6:00 AM86 °FClear.5 mph49%29.47 "Hg5 mi
5:00 AM86 °FClear.No wind49%29.47 "Hg10 mi
4:00 AM84 °FPassing clouds.5 mph51%29.47 "HgN/A
3:00 AM88 °FClear.No wind49%29.47 "Hg10 mi
2:00 AM90 °FClear.3 mph43%29.45 "Hg10 mi
1:00 AM93 °FClear.5 mph39%29.45 "Hg10 mi
12:00 AM93 °FClear.5 mph44%29.47 "Hg10 mi
11:00 PM
Jul 30
95 °FClear.6 mph41%29.47 "Hg10 mi
10:00 PM93 °FClear.3 mph44%29.47 "Hg10 mi
9:00 PM95 °FClear.2 mph41%29.47 "Hg10 mi
8:00 PM99 °FClear.2 mph35%29.45 "Hg10 mi
7:00 PM100 °FSunny.7 mph29%29.45 "Hg10 mi
6:00 PM102 °FPassing clouds.8 mph31%29.45 "HgN/A
5:00 PM104 °FSunny.114 mph26%29.45 "Hg10 mi
4:00 PM104 °FPassing clouds.12 mph28%29.45 "HgN/A
3:00 PM104 °FPassing clouds.12 mph31%29.45 "HgN/A
2:00 PM102 °FPassing clouds.13 mph35%29.45 "HgN/A
1:00 PM104 °FClear.12 mph28%29.47 "Hg5 mi
12:00 PM102 °FClear.7 mph37%29.47 "Hg5 mi
Weather by CustomWeather, © 2014

See weather overviewHow to use our weather pages